Location: Asheville, NC
(35.6000°N, 82.5500°W)
Time: 06:44:34
(UTC-05:00)

STARS - Pass Details

Date: 04 January 2018
Orbit: 625 x 641 km, 98.3° (Epoch: 18 January)

Event Time Altitude Azimuth Distance (km) Brightness Sun altitude
Rises 05:31:49 0° 158° (SSE) 2,899 ? -25.4°
Reaches altitude 10° 05:34:01 10° 155° (SSE) 1,994 ? -25.0°
Maximum altitude 05:38:17 62° 75° (ENE) 704 ? -24.1°
Enters shadow 05:40:13 31° 5° (N) 1,096 ? -23.7°
